User: anonymous   Login
Location: St Andrew
(49.4460°N, 2.5750°W)
Time: 19:03:32
(UTC+01:00)
Language:

Iridium 66 - Orbit

View from above orbital plane
View from above orbital plane
View from above satellite
View from above satellite

Ground track
Ground track

The orbit data is extracted from the following two-line orbital elements,

1 25289U 98021E   16126.25425516  .00000245  00000-0  80508-4 0  9998
2 25289  86.3995  34.3039 0002077  83.2345  27.8605 14.34217917946546
Epoch (UTC): 05 May 2016 06:06:07
Eccentricity: 0.0002077
inclination: 86.3995°
perigee height: 776 km
apogee height: 779 km
right ascension of ascending node: 34.3039°
argument of perigee: 83.2345°
revolutions per day: 14.34217917
mean anomaly at epoch: 27.8605°
orbit number at epoch: 94654

The dashed part of the orbit path shows where the satellite is in the earth's shadow,  

DLR